Location: Unspecified
(0.0000°N, 0.0000°E)
Time: 20:08:54
(UTC+02:00)

ATLAS 2AS CENTAUR R/B - Visible Passes

Search period start: 27 May 2016 00:00
Search period end: 06 June 2016 00:00
Orbit: 904 x 1308 km, 63.7° (Epoch: 01 May)

Date Brightness Start Highest point End Pass type
(mag) Time Alt. Az. Time Alt. Az. Time Alt. Az.
27 May 5.1 04:56:04 10° SE 04:57:56 11° ESE 04:59:51 10° E visible
27 May 2.7 06:43:24 19° SW 06:48:22 68° WNW 06:55:39 10° NNE visible
28 May 2.9 06:00:51 36° S 06:03:41 67° ESE 06:10:54 10° NNE visible
29 May 3.8 05:18:15 34° SE 05:19:03 35° ESE 05:25:27 10° NE visible
29 May 3.9 07:05:44 15° WSW 07:09:43 25° WNW 07:15:31 10° NNW visible
30 May 4.8 04:35:35 17° E 04:35:35 17° E 04:38:55 10° ENE visible
30 May 3.0 06:23:05 38° WSW 06:24:54 46° WNW 06:31:53 10° N visible
31 May 2.6 05:40:22 84° NNW 05:40:22 84° NNW 05:47:30 10° NNE visible
01 Jun 3.8 04:57:36 39° ENE 04:57:36 39° ENE 05:02:29 10° NE visible
01 Jun 4.2 06:45:05 16° WNW 06:46:21 17° WNW 06:50:46 10° NNW visible
02 Jun 5.0 04:14:47 17° ENE 04:14:47 17° ENE 04:16:40 10° ENE visible
02 Jun 3.6 06:02:15 31° NW 06:02:15 31° NW 06:07:51 10° N visible
03 Jun 3.7 05:19:22 38° N 05:19:22 38° N 05:23:53 10° NNE visible
04 Jun 4.5 04:36:25 25° NNE 04:36:25 25° NNE 04:39:14 10° NNE visible
04 Jun 4.7 06:23:53 10° NW 06:23:53 10° NW 06:24:31 10° NW visible
05 Jun 5.3 03:53:26 12° NE 03:53:26 12° NE 03:53:56 10° NE visible
05 Jun 4.5 05:40:53 18° NW 05:40:53 18° NW 05:43:29 10° NNW visible
